When you browse on this site, cookies collect data to enhance your experience and personalize the content and advertising you see.
Visit our Privacy Policy to learn more. By continuing to use the site, you agree to this use of cookies and data.
  • In Sweden
  • List of Countries
  • For 7 days
  • Water Temperature
  • Weather Map
  • Weather Widgets
  • user-avatar
    Login

    Hourly Weather Zhmerynka

    Today, 27 February, Thursday

    Time Temperature Precipitation Wind Pressure Humidity
    00:00 +5°C° 0 mm 3 mps 718 mmHg 88%
    01:00 +4°C° 0 mm 3 mps 719 mmHg 90%
    02:00 +3°C° 0 mm 3 mps 719 mmHg 92%
    03:00 +3°C° 0 mm 3 mps 719 mmHg 91%
    04:00 +3°C° 0 mm 3 mps 719 mmHg 90%
    05:00 +3°C° 0 mm 3 mps 719 mmHg 89%
    06:00 +3°C° 0 mm 3 mps 720 mmHg 86%
    07:00 +3°C° 0 mm 4 mps 720 mmHg 83%
    08:00 +2°C° 0 mm 5 mps 720 mmHg 79%
    09:00 +2°C° 0.1 mm 5 mps 721 mmHg 74%
    10:00 +2°C° 0.1 mm 5 mps 721 mmHg 70%
    11:00 +3°C° 0.1 mm 4 mps 721 mmHg 65%
    12:00 +2°C° 0.1 mm 5 mps 721 mmHg 64%
    13:00 +3°C° 0.1 mm 5 mps 722 mmHg 64%
    14:00 +3°C° 0.1 mm 5 mps 722 mmHg 64%
    15:00 +2°C° 0 mm 5 mps 722 mmHg 65%
    16:00 +2°C° 0 mm 5 mps 722 mmHg 66%
    17:00 +2°C° 0 mm 5 mps 722 mmHg 68%
    18:00 +1°C° 0 mm 5 mps 722 mmHg 70%
    19:00 0°C° 0 mm 4 mps 722 mmHg 71%
    20:00 0°C° 0 mm 4 mps 723 mmHg 73%
    21:00 0°C° 0 mm 4 mps 722 mmHg 75%
    22:00 -1°C° 0 mm 4 mps 722 mmHg 77%
    23:00 0°C° 0 mm 3 mps 722 mmHg 79%

    Tomorrow, 28 February, Friday

    Time Temperature Precipitation Wind Pressure Humidity
    00:00 -2°C° 0 mm 4 mps 723 mmHg 81%
    01:00 -2°C° 0 mm 4 mps 723 mmHg 83%
    02:00 -2°C° 0 mm 4 mps 723 mmHg 84%
    03:00 -1°C° 0 mm 3 mps 723 mmHg 85%
    04:00 -2°C° 0 mm 3 mps 723 mmHg 86%
    05:00 -2°C° 0 mm 2 mps 723 mmHg 87%
    06:00 -2°C° 0 mm 2 mps 724 mmHg 86%
    07:00 -1°C° 0 mm 2 mps 724 mmHg 84%
    08:00 -1°C° 0 mm 2 mps 724 mmHg 83%
    09:00 +1°C° 0 mm 2 mps 725 mmHg 76%
    10:00 +1°C° 0 mm 3 mps 725 mmHg 69%
    11:00 +2°C° 0 mm 3 mps 725 mmHg 63%
    12:00 +3°C° 0 mm 3 mps 725 mmHg 60%
    13:00 +3°C° 0 mm 4 mps 725 mmHg 58%
    14:00 +4°C° 0 mm 4 mps 725 mmHg 55%
    15:00 +4°C° 0 mm 3 mps 725 mmHg 57%
    16:00 +5°C° 0 mm 2 mps 725 mmHg 59%
    17:00 +4°C° 0 mm 2 mps 725 mmHg 61%
    18:00 +4°C° 0 mm 2 mps 726 mmHg 64%
    19:00 +3°C° 0 mm 2 mps 726 mmHg 67%
    20:00 +3°C° 0 mm 2 mps 726 mmHg 69%
    21:00 +2°C° 0 mm 2 mps 727 mmHg 74%
    22:00 +2°C° 0 mm 2 mps 727 mmHg 78%
    23:00 +2°C° 0 mm 2 mps 728 mmHg 83%

    Day after tomorrow, 29 February, Saturday

    Time Temperature Precipitation Wind Pressure Humidity
    00:00 +1°C° 0.1 mm 2 mps 728 mmHg 86%
    01:00 +1°C° 0.1 mm 2 mps 728 mmHg 89%
    02:00 +1°C° 0.1 mm 2 mps 729 mmHg 92%
    03:00 0°C° 0 mm 3 mps 729 mmHg 90%
    04:00 -1°C° 0 mm 3 mps 730 mmHg 89%
    05:00 -2°C° 0 mm 4 mps 730 mmHg 87%
    06:00 -2°C° 0 mm 4 mps 731 mmHg 87%
    07:00 -2°C° 0 mm 4 mps 731 mmHg 88%
    08:00 -2°C° 0 mm 4 mps 731 mmHg 88%
    09:00 -1°C° 0 mm 4 mps 732 mmHg 80%
    10:00 0°C° 0 mm 4 mps 732 mmHg 71%
    11:00 +3°C° 0 mm 4 mps 732 mmHg 63%
    12:00 +3°C° 0 mm 3 mps 732 mmHg 58%
    13:00 +4°C° 0 mm 3 mps 732 mmHg 53%
    14:00 +4°C° 0 mm 3 mps 732 mmHg 49%
    15:00 +4°C° 0 mm 3 mps 732 mmHg 49%
    16:00 +5°C° 0 mm 2 mps 732 mmHg 50%
    17:00 +5°C° 0 mm 2 mps 732 mmHg 51%
    18:00 +4°C° 0 mm 2 mps 732 mmHg 55%
    19:00 +4°C° 0 mm 1 mps 733 mmHg 59%
    20:00 +3°C° 0 mm 1 mps 733 mmHg 63%
    21:00 +2°C° 0 mm 2 mps 733 mmHg 65%
    22:00 +1°C° 0 mm 2 mps 733 mmHg 67%
    23:00 0°C° 0 mm 3 mps 733 mmHg 68%

    1 March, Sunday

    Time Temperature Precipitation Wind Pressure Humidity
    00:00 0°C° 0 mm 3 mps 733 mmHg 69%
    01:00 0°C° 0 mm 3 mps 733 mmHg 70%
    02:00 -2°C° 0 mm 4 mps 733 mmHg 71%
    03:00 -2°C° 0 mm 4 mps 732 mmHg 70%
    04:00 -1°C° 0 mm 4 mps 732 mmHg 69%
    05:00 -1°C° 0 mm 5 mps 732 mmHg 68%
    06:00 -1°C° 0 mm 5 mps 732 mmHg 66%
    07:00 -2°C° 0 mm 6 mps 732 mmHg 64%
    08:00 -1°C° 0 mm 6 mps 732 mmHg 63%
    09:00 0°C° 0 mm 7 mps 732 mmHg 60%
    10:00 +1°C° 0 mm 8 mps 732 mmHg 57%
    11:00 +2°C° 0 mm 9 mps 732 mmHg 54%
    12:00 +3°C° 0 mm 9 mps 731 mmHg 52%
    13:00 +5°C° 0 mm 8 mps 731 mmHg 50%
    14:00 +5°C° 0 mm 8 mps 731 mmHg 48%
    15:00 +5°C° 0 mm 8 mps 730 mmHg 50%
    16:00 +5°C° 0 mm 7 mps 730 mmHg 51%
    17:00 +5°C° 0 mm 7 mps 729 mmHg 53%
    18:00 +5°C° 0 mm 6 mps 729 mmHg 56%
    19:00 +4°C° 0 mm 6 mps 729 mmHg 58%
    20:00 +4°C° 0 mm 6 mps 729 mmHg 61%
    21:00 +3°C° 0 mm 6 mps 729 mmHg 66%
    22:00 +3°C° 0 mm 7 mps 729 mmHg 70%
    23:00 +3°C° 0 mm 7 mps 729 mmHg 75%

    2 March, Monday

    Time Temperature Precipitation Wind Pressure Humidity
    00:00 +2°C° 0 mm 7 mps 729 mmHg 76%
    01:00 +2°C° 0 mm 6 mps 729 mmHg 78%
    02:00 +2°C° 0 mm 6 mps 729 mmHg 79%
    03:00 +2°C° 0 mm 6 mps 728 mmHg 80%
    04:00 +2°C° 0 mm 6 mps 728 mmHg 81%
    05:00 +1°C° 0 mm 6 mps 728 mmHg 82%
    06:00 +1°C° 0 mm 6 mps 727 mmHg 83%
    07:00 +1°C° 0 mm 6 mps 727 mmHg 84%
    08:00 +1°C° 0 mm 6 mps 727 mmHg 85%
    09:00 +2°C° 0 mm 7 mps 727 mmHg 82%
    10:00 +3°C° 0 mm 7 mps 726 mmHg 79%
    11:00 +4°C° 0 mm 8 mps 726 mmHg 75%
    12:00 +5°C° 0 mm 8 mps 725 mmHg 73%
    13:00 +5°C° 0 mm 8 mps 724 mmHg 71%
    14:00 +6°C° 0 mm 8 mps 724 mmHg 69%
    15:00 +6°C° 0 mm 8 mps 723 mmHg 70%
    16:00 +6°C° 0 mm 8 mps 723 mmHg 72%
    17:00 +6°C° 0 mm 8 mps 722 mmHg 73%
    18:00 +6°C° 0.3 mm 7 mps 722 mmHg 78%
    19:00 +5°C° 0.3 mm 7 mps 722 mmHg 83%
    20:00 +5°C° 0.3 mm 7 mps 721 mmHg 88%
    21:00 +5°C° 0.5 mm 7 mps 721 mmHg 90%
    22:00 +5°C° 0.5 mm 6 mps 721 mmHg 92%
    23:00 +6°C° 0.5 mm 5 mps 721 mmHg 94%

    3 March, Tuesday

    Time Temperature Precipitation Wind Pressure Humidity
    00:00 +6°C° 0 mm 5 mps 722 mmHg 92%
    01:00 +6°C° 0 mm 4 mps 722 mmHg 90%
    02:00 +6°C° 0 mm 4 mps 722 mmHg 88%
    03:00 +6°C° 0 mm 4 mps 722 mmHg 87%
    04:00 +6°C° 0 mm 4 mps 723 mmHg 86%
    05:00 +6°C° 0 mm 4 mps 723 mmHg 85%
    06:00 +5°C° 0 mm 4 mps 724 mmHg 85%
    07:00 +5°C° 0 mm 5 mps 725 mmHg 85%
    08:00 +3°C° 0 mm 5 mps 725 mmHg 86%
    09:00 +5°C° 0 mm 5 mps 726 mmHg 78%
    10:00 +5°C° 0 mm 6 mps 727 mmHg 71%
    11:00 +7°C° 0 mm 6 mps 728 mmHg 63%
    12:00 +8°C° 0 mm 6 mps 728 mmHg 60%
    13:00 +8°C° 0 mm 5 mps 729 mmHg 57%
    14:00 +9°C° 0 mm 5 mps 729 mmHg 54%
    15:00 +10°C° 0 mm 4 mps 729 mmHg 55%
    16:00 +9°C° 0 mm 3 mps 729 mmHg 56%
    17:00 +9°C° 0 mm 2 mps 729 mmHg 57%
    18:00 +8°C° 0 mm 2 mps 729 mmHg 61%
    19:00 +7°C° 0 mm 2 mps 729 mmHg 65%
    20:00 +6°C° 0 mm 2 mps 730 mmHg 70%
    21:00 +5°C° 0 mm 3 mps 730 mmHg 72%
    22:00 +4°C° 0 mm 3 mps 730 mmHg 75%
    23:00 +4°C° 0 mm 3 mps 730 mmHg 77%
    Show more